Regional Weather Roundup
Issued by NWS

Home | Current Version | Previous Version | Graphics & Text | Print | Product List | Glossary On
Versions: 1 2 3 4 5 6 7 8 9 10 11 12 13 14 15 16 17 18 19 20 21 22 23 24 25 26 27 28 29 30 31 32 33 34 35 36 37 38 39 40 41 42 43 44 45 46 47 48 49
469
ASUS45 KBOU 301907
RWRCO

WEATHER ROUNDUP FOR COLORADO
NATIONAL WEATHER SERVICE DENVER/BOULDER CO
100 PM MDT SAT APR 30 2016

NOTE: "FAIR" INDICATES FEW OR NO CLOUDS BELOW 12000 FEET WITH NO
SIGNIFICANT WEATHER AND/OR OBSTRUCTIONS TO VISIBILITY.

COZ001>005-013-030-031-302000-
...NORTHWEST COLORADO...

CITY           SKY/WX    TMP DP  RH WIND       PRES   REMARKS
CRAIG          CLOUDY    43  32  65 NW6       29.93S
HAYDEN         CLOUDY    39  28  65 CALM      29.93S
MEEKER         PTSUNNY   44  34  67 VRB5      29.92F
MOUNT WERNER   NOT AVBL
STEAMBOAT SPGS CLOUDY    39  26  58 W3        29.94R
WALDEN         CLOUDY    32  23  69 N9        30.00R WCI  24
$$

COZ006>008-011-302000-
...WEST CENTRAL VALLEYS...

CITY           SKY/WX    TMP DP  RH WIND       PRES   REMARKS
GRAND JUNCTION CLOUDY    51  32  48 NW9       29.89F
MONTROSE       FAIR      52  27  38 N8        29.89F
EAGLE          LGT RAIN  39  36  87 N9        29.93S FOG
RIFLE          CLOUDY    49  31  49 W9        29.90F
DELTA          NOT AVBL
NUCLA          NOT AVBL
$$

COZ017>023-064>068-302000-
...SOUTHWEST COLORADO...

CITY           SKY/WX    TMP DP  RH WIND       PRES   REMARKS
DURANGO        PTSUNNY   52  27  38 S6        29.86F
CORTEZ         FAIR      54  29  38 S6        29.85F
PAGOSA SPRINGS PTSUNNY   46  29  51 SW7       29.89F
TELLURIDE      FAIR      40  26  56 W8        29.94F
WOLF CREEK PAS LGT SNOW  28  27  93 SW14G24   29.98S WCI  17
$$

COZ009-010-012-014-032>034-037-058>063-302000-
...CENTRAL COLORADO...

CITY           SKY/WX    TMP DP  RH WIND       PRES   REMARKS
ASPEN          CLOUDY    39  29  67 N7        29.89S
BUENA VISTA    CLOUDY    38  29  70 CALM      29.87S
COPPER MTN     NOT AVBL
BERTHOUD PASS  SNOW      16   5  62 E8        29.94S VSB 1/4 WCI   5
COTTONWOOD PAS LGT RAIN  36  28  75 CALM      29.90R
GUNNISON       PTSUNNY   45  28  53 W12G22    29.89F
KREMMLING      CLOUDY    36  28  75 NW9G16    29.96R
LEADVILLE      CLOUDY    32  20  61 NW10G17   29.88S WCI  24
MONARCH PASS   CLOUDY    23  21  93 MISG      30.03S
SALIDA         PTSUNNY   45  34  66 SE10G16   29.94S
SUNLIGHT       CLOUDY   N/A N/A N/A CALM      29.97S HAZE
WILKERSON PASS SNOW      19  18  93 E8        29.95R VSB 1/4 WCI   9
$$

COZ069>075-302000-
...SAN LUIS VALLEY/SANGRE DE CRISTO MOUNTAINS...

CITY           SKY/WX    TMP DP  RH WIND       PRES   REMARKS
ALAMOSA        FAIR      49  28  44 S6        29.85F
LA VETA PASS   SNOW      30  27  86 MISG      29.93S VSB<1/4
SAGUACHE       MIX PCPN  41  32  70 N9G29     29.89R
$$

COZ035-036-038>040-302000-
...NORTHERN COLORADO FRONT RANGE...

CITY           SKY/WX    TMP DP  RH WIND       PRES   REMARKS
DENVER INTL AP LGT SNOW  34  29  82 NW23      29.98S VSB 3/4 WCI  22
DMNS CITY PARK   N/A     35  33  93 N12G18    30.00S WCI  26
AURORA         LGT SNOW  32  32 100 N24       29.99R FOG     WCI  19
FRONT RANGE AP LGT SNOW  32  32 100 NW20      29.98S VSB 1   WCI  20
ERIE MUNI ARPT FLURRIES  37  33  86 N20G26    30.01S
BOULDER MUN AP CLOUDY    37  32  81 N15G21    30.01R
CENTENNIAL     LGT SNOW  34  31  88 N18G25    29.99R VSB 1   WCI  23
BROOMFIELD     LGT SNOW  36  32  87 N16G23    30.00R VSB 3/4
FORT COLLINS   PTSUNNY   36  34  93 N18       30.03R
LONGMONT       MIX PCPN  40  35  81 N15G23    30.04R
$$

COZ041-046-047-076>085-087-088-302000-
...PIKES PEAK/PALMER DIVIDE AND SOUTHERN FOOTHILLS...

CITY           SKY/WX    TMP DP  RH WIND       PRES   REMARKS
COLO. SPRINGS  CLOUDY    36  25  64 NW21G31   29.94S
A. F. ACADEMY  LGT RAIN  32  27  80 N23G32    29.93S WCI  19
SCHRIEVER AFB  NOT AVBL
ELLICOTT       NOT AVBL
FALCON         CLOUDY    38  24  58 NW13G18   29.94S
FORT CARSON    FAIR      38  27  64 N23G35    29.91F
LIMON          LGT SNOW  33  30  88 NW25G35   29.91S FOG     WCI  20
MONUMENT HILL  CLOUDY    30  27  86 N21G28    29.96S FOG     WCI  17
TRINIDAD       CLOUDY    41  29  62 N9        29.94S
$$

COZ042>045-048>051-090-091-302000-
...NORTHEAST COLORADO...

CITY           SKY/WX    TMP DP  RH WIND       PRES   REMARKS
GREELEY ARPT   CLOUDY    37  34  87 N22       30.01S
AKRON          SNOW      33  31  92 N24       29.91R VSB 1/2 WCI  20
BURLINGTON     CLOUDY    37  31  78 N18G26    29.87R
WRAY           NOT AVBL
STERLING       MIX PCPN  34  34 100 N17       29.93R WCI  23
HOLYOKE        NOT AVBL
FORT MORGAN    DRIZZLE   35  32  90 N16       29.96S WCI  25
$$

COZ086-089-092>099-302000-
...SOUTHEAST COLORADO...

CITY           SKY/WX    TMP DP  RH WIND       PRES   REMARKS
PUEBLO         CLOUDY    45  29  53 N28       29.93F
LA JUNTA       FAIR      49  32  52 NW26G35   29.94R
LAMAR          PTSUNNY   49  33  54 NW18G28   29.89R
SPRINGFIELD      N/A     47  32  56 NW20G30   29.90S
$$




USA.gov is the U.S. government's official web portal to all federal, state and local government web resources and services.